Hourly Data Report for October 03, 2003

SHERBROOKE A
QUEBEC

45°26'00.000" N
71°41'00.000" W
241.40 m
7028124
71610
YSC

Download Data

Hourly Data (October 2003)
Hourly Data Report for October 3, 2003
TIME
LST
Temp Definition
°C
Dew Point Definition
°C
Rel Hum Definition
%
Precip. Amount Definition
mm

Wind Dir Definition
10's deg

Wind Spd Definition
km/h
Visibility Definition
km
Stn Press Definition
kPa
Hmdx Definition


Wind Chill Definition


Weather Definition


00:00 3.0 2.2 94   28 15 15.0 98.35     Rain
01:00 2.5 1.3 92   28 19 15.0 98.45     Rain
02:00 1.8 0.6 92   26 13 15.0 98.56      
03:00 1.9 0.7 92   24 11 15.0 98.61      
04:00 1.5 0.3 92   23 7 15.0 98.67      
05:00 0.3 -0.8 92   23 6 15.0 98.74      
06:00 0.1 -0.9 93   24 7 15.0 98.82      
07:00 1.0 -0.1 92   25 7 24.1 98.88     Mostly Cloudy
08:00 2.3 0.7 89   26 13 24.1 98.91     Mostly Cloudy
09:00 3.9 1.8 86   26 17 24.1 98.95     Mostly Cloudy
10:00 4.8 0.8 75   27 19 24.1 98.94     Mostly Cloudy
11:00 7.2 0.0 60   27 13 24.1 98.91     Mainly Clear
12:00 7.8 -0.7 55   26 7 24.1 98.86     Mainly Clear
13:00 9.5 -1.3 47   20 7 24.1 98.76     Mainly Clear
14:00 9.9 -2.1 43   18 13 24.1 98.70     Mainly Clear
15:00 10.7 -1.8 42   19 11 24.1 98.66     Mainly Clear
16:00 10.4 -3.7 37   19 7 24.1 98.65     Mainly Clear
17:00 7.0 -0.5 59   16 4 15.0 98.63      
18:00 5.1 -1.7 61   15 9 15.0 98.63      
19:00 3.7 -1.5 69   12 9 15.0 98.63      
20:00 2.8 -1.7 72   12 7 15.0 98.61      
21:00 2.4 -1.8 74   8 13 15.0 98.59      
22:00 1.6 -2.0 77   8 7 15.0 98.57      
23:00 3.0 -0.8 76   12 9 15.0 98.56      

Notes on Data Quality.

Legend

  • E = Estimated
  • M = Missing
  • NA = Not Available*
  • [empty] = Indicates an unobserved value
Date modified: